2 22825 098.3158 021.2011 0007561 262.6123 097.4233 14.29199529698027
IO-26
1 22826U 93061D 07045.68036376 .00000015 00000-0 21949-4 0 03139
2 22826 098.3091 022.1206 0008048 261.5816 098.4444 14.29444856698074
PO-28
1 22829U 93061G 07045.90609683 -.00000007 00000-0 13208-4 0 05935
2 22829 098.2987 023.5192 0008993 231.9146 128.1231 14.30143056698339
GO-32
1 25397U 98043D 07045.68355606 .00000012 00000-0 23826-4 0 02323
2 25397 098.4345 098.1561 0000894 182.6453 177.4730 14.23120114446733
MO-46
1 26548U 00057D 07046.47495095 .00000082 00000-0 28097-4 0 7232
2 26548 064.5559 199.1894 0029294 213.4503 146.4769 14.83098943345486
NO-44
1 26931U 01043C 07046.62677641 -.00000160 00000-0 -30370-4 0 5223
2 26931 067.0522 100.6226 0005881 276.1059 083.9358 14.29472357280723
SO-50
1 27607U 02058C 07046.51942401 .00000037 00000-0 27716-4 0 2439
2 27607 064.5586 094.4212 0040255 040.2496 320.1566 14.71227879223223
CO-55
1 27844U 03031E 07046.67060504 .00000053 00000-0 44948-4 0 9628
2 27844 098.7217 056.6223 0010742 082.5584 277.6807 14.20491753188225
CO-57
1 27848U 03031J 07045.54864190 .00000051 00000-0 44329-4 0 9238
2 27848 098.7205 054.7564 0010611 087.9206 272.3198 14.20313532188041
AO-51
1 28375U 04025K 07045.62772381 .00000014 00000-0 17008-4 0 07496
2 28375 098.1315 091.1609 0083255 193.4556 166.4414 14.40555147138077
CO-56
1 28941U 06005C 07045.63323873 .00022865 25246-5 25670-3 0 3529
2 28941 098.1501 093.4622 0243617 345.8023 013.6507 15.34745715 54603
HO-59
1 29484U 06041F 07045.68707433 .00043254 29720-5 34842-3 0 01957
2 29484 098.3067 077.6671 0240946 342.5941 016.7172 15.41780786022149
NO-60
1 29661U 06055C 07045.94238938 .00061102 00000-0 21855-3 0 00740
2 29661 051.6445 012.3384 0010342 217.1987 142.8306 15.88144611008873
NO-61
1 29667U 06055J 07045.96051082 .00015912 00000-0 72947-4 0 00579
2 29667 051.6365 013.1772 0014929 224.4535 135.5273 15.83755415008603
NOAA-10
1 16969U 86073A 07045.55628502 .00000016 00000-0 24757-4 0 05479
2 16969 098.7542 062.6193 0012548 161.6180 198.5447 14.27317361061738
NOAA-11
1 19531U 88089A 07045.78797797 .00000190 00000-0 12140-3 0 05334
2 19531 098.8147 136.4761 0012012 022.7817 337.3859 14.14835751948849
NOAA-12
1 21263U 91032A 07045.89314626 -.00000049 00000-0 -21099-5 0 00277
2 21263 098.7491 043.3639 0013619 102.3108 257.9623 14.25521670818821
MET-3/5
1 21655U 91056A 07046.84897210 .00000051 00000-0 10000-3 0 2269
2 21655 082.5533 088.6777 0013574 146.8672 213.3304 13.17009775745433
MET-2/21
1 22782U 93055A 07046.37347195 -.00000035 00000-0 -45370-4 0 7495
2 22782 082.5504 138.5588 0021442 214.8281 145.1460 13.83612950679678
OKEAN-4
1 23317U 94066A 07045.74291861 .00000296 00000-0 33817-4 0 1866
2 23317 082.5374 050.7620 0020751 298.6691 061.2440 14.82467356665913
NOAA-14
1 23455U 94089A 07045.70933784 .00000042 00000-0 45991-4 0 05181
2 23455 099.0053 111.1656 0010065 087.9426 272.2879 14.13699404625333
SICH-1
1 23657U 95046A 07046.78027532 .00000021 00000-0 26708-5 0 9887
2 23657 082.5298 190.7049 0022532 284.2546 075.6662 14.81450405618058
NOAA-15
1 25338U 98030A 07045.89555291 .00000045 00000-0 37648-4 0 08799
2 25338 098.5281 046.0479 0010991 030.6839 329.4991 14.24626411455276
RESURS
1 25394U 98043A 07045.74837315 -.00000005 00000-0 16051-4 0 05787
2 25394 098.4579 105.0281 0001263 151.6689 208.4560 14.24127124446920
FENGYUN1
1 25730U 99025A 07046.92926624 .00000262 00000-0 17996-3 0 9545
2 25730 098.6802 035.4391 0021111 107.0710 253.2775 14.07416339400406
OKEAN-0
1 25860U 99039A 07046.74195113 .00000071 00000-0 18200-4 0 9790
2 25860 097.7316 054.6678 0001871 064.6358 295.5063 14.73430500407616
NOAA-16
1 26536U 00055A 07045.84967246 .00000090 00000-0 73920-4 0 02867
2 26536 099.1030 020.7490 0010933 154.3775 205.7958 14.12404513329832
NOAA-17
1 27453U 02032A 07045.68504729 -.00000039 00000-0 17617-5 0 03012
2 27453 098.5941 117.8625 0012657 091.5878 268.6756 14.23853129241283
NOAA-18
1 28654U 05018A 07045.72343095 -.00000059 00000-0 -84314-5 0 08448
2 28654 098.8166 349.1393 0013554 254.5755 105.3902 14.11036983089584
HUBBLE
1 20580U 90037B 07045.93287173 .00000398 00000-0 18076-4 0 08243
2 20580 028.4685 267.3067 0003766 238.7372 121.2849 15.00190822721583
UARS
1 21701U 91063B 07046.77376494 .00004896 00000-0 90252-4 0 9960
2 21701 056.9769 120.3038 0091650 320.6038 038.8376 15.46703172846958
PO-34
1 25520U 98064B 07046.79355637 .00000547 00000-0 17278-4 0 6759
2 25520 028.4588 201.1830 0004942 016.0063 344.0686 15.16926126459076
ISS
1 25544U 98067A 07047.01064127 .00020610 00000-0 11900-3 0 6506
2 25544 051.6352 010.2234 0020872 211.2343 275.7318 15.78330083471633
OO-38
1 26063U 00004C 07045.73231838 .00000013 00000-0 24583-4 0 8395
2 26063 100.2193 025.7742 0037174 144.0490 216.3194 14.35795941369479
NO-45
1 26932U 01043D 07046.62810998 -.00000054 00000-0 11319-4 0 5287
2 26932 067.0552 100.3656 0004133 285.3399 074.7243 14.29549348280769
UWE-1
1 28892U 05043C 07046.65860430 .00000095 00000-0 29783-4 0 6770
2 28892 098.1450 305.6316 0018328 129.7961 230.4848 14.59464640 69488
CO-58
1 28895U 05043F 07046.70989441 .00000094 00000-0 29587-4 0 6594
2 28895 098.1466 305.8472 0018901 130.2845 229.9995 14.59514092 69379
NCUBE2
1 28897U 05043H 07044.26177427 .00000154 00000-0 41923-4 0 01868
2 28897 098.1478 303.4131 0017901 137.9853 222.2688 14.59673318061297
NMARS
1 29662U 06055D 07046.80902947 .00087396 13880-4 30342-3 0 776
2 29662 051.6378 007.6030 0009125 218.5004 141.5452 15.89407629 8900
FCAL
1 29664U 06055F 07045.95250205 .00023560 00000-0 10328-3 0 00597
2 29664 051.6363 013.1210 0014475 220.5865 139.4059 15.84374766008730
/EX
1
0
SB KEPS @ AMSAT $ORB07046.O
Orbital Elements 07046.OSCAR
HR AMSAT ORBITAL ELEMENTS FOR OSCAR SATELLITES
FROM WA5QGD FORT WORTH,TX February 15, 2007
Send SUBSCRIBE KEPS/UNSUBSCRIBE KEPS to majordomo(a)amsat.org only
BID: ORB07046.O
TO ALL RADIO AMATEURS BT
Satellite: AO-07
Catalog number: 07530
Epoch time: 07045.63861570
Element set: 0807
Inclination: 101.5348 deg
RA of node: 087.1773 deg
Eccentricity: 0.0012111
Arg of perigee: 134.3426 deg
Mean anomaly: 225.8638 deg
Mean motion: 12.53572478 rev/day
Decay rate: -2.8e-07 rev/day^2
Epoch rev: 47576
Checksum: 302
Satellite: AO-10
Catalog number: 14129
Epoch time: 07045.17252119
Element set: 0361
Inclination: 026.9212 deg
RA of node: 291.6014 deg
Eccentricity: 0.6052801
Arg of perigee: 357.9735 deg
Mean anomaly: 000.5274 deg
Mean motion: 02.05868902 rev/day
Decay rate: 1.3e-07 rev/day^2
Epoch rev: 17803
Checksum: 270
Satellite: UO-11
Catalog number: 14781
Epoch time: 07045.57856784
Element set: 0302
Inclination: 098.2001 deg
RA of node: 065.8537 deg
Eccentricity: 0.0008640
Arg of perigee: 200.9185 deg
Mean anomaly: 159.1641 deg
Mean motion: 14.79522227 rev/day
Decay rate: 1.93e-06 rev/day^2
Epoch rev: 23160
Checksum: 294
Satellite: RS-10/11
Catalog number: 18129
Epoch time: 07045.82196860
Element set: 0229
Inclination: 082.9281 deg
RA of node: 148.6986 deg
Eccentricity: 0.0012474
Arg of perigee: 132.5249 deg
Mean anomaly: 227.6961 deg
Mean motion: 13.72784292 rev/day
Decay rate: 3.7e-07 rev/day^2
Epoch rev: 98444
Checksum: 337
Satellite: RS-15
Catalog number: 23439
Epoch time: 07045.85412822
Element set: 0015
Inclination: 064.8143 deg
RA of node: 204.7569 deg
Eccentricity: 0.0162758
Arg of perigee: 212.2151 deg
Mean anomaly: 146.8749 deg
Mean motion: 11.27551838 rev/day
Decay rate: -3.9e-07 rev/day^2
Epoch rev: 49990
Checksum: 318
Satellite: FO-29
Catalog number: 24278
Epoch time: 07045.95990158
Element set: 0443
Inclination: 098.5336 deg
RA of node: 022.1092 deg
Eccentricity: 0.0351247
Arg of perigee: 040.1721 deg
Mean anomaly: 322.4822 deg
Mean motion: 13.52927838 rev/day
Decay rate: 1.0e-07 rev/day^2
Epoch rev: 51837
Checksum: 301
Satellite: SO-33
Catalog number: 25509
Epoch time: 07045.72854272
Element set: 864
Inclination: 031.4273 deg
RA of node: 198.0974 deg
Eccentricity: 0.0354661
Arg of perigee: 076.8188 deg
Mean anomaly: 287.1768 deg
Mean motion: 14.28146571 rev/day
Decay rate: 5.5e-07 rev/day^2
Epoch rev: 43373
Checksum: 338
Satellite: AO-40
Catalog number: 26609
Epoch time: 07046.52374286
Element set: 840
Inclination: 004.8306 deg
RA of node: 174.4525 deg
Eccentricity: 0.7997343
Arg of perigee: 274.2209 deg
Mean anomaly: 008.5819 deg
Mean motion: 01.25586301 rev/day
Decay rate: 6.6e-07 rev/day^2
Epoch rev: 2891
Checksum: 315
Satellite: VO-52
Catalog number: 28650
Epoch time: 07045.70900109
Element set: 0556
Inclination: 097.8446 deg
RA of node: 119.1059 deg
Eccentricity: 0.0026194
Arg of perigee: 293.4468 deg
Mean anomaly: 066.3997 deg
Mean motion: 14.81266245 rev/day
Decay rate: 4.05e-06 rev/day^2
Epoch rev: 09628
Checksum: 331
Satellite: PO-63
Catalog number: 29712
Epoch time: 07046.72234358
Element set: 107
Inclination: 097.9377 deg
RA of node: 107.4992 deg
Eccentricity: 0.0014998
Arg of perigee: 158.8994 deg
Mean anomaly: 201.2839 deg
Mean motion: 14.79553613 rev/day
Decay rate: 8.35e-06 rev/day^2
Epoch rev: 537
Checksum: 348
/EX
SB KEPS @ AMSAT $ORB07046.D
Orbital Elements 07046.MICROS
HR AMSAT ORBITAL ELEMENTS FOR THE MICROSATS
FROM WA5QGD FORT WORTH,TX February 15, 2007
Send SUBSCRIBE KEPS/UNSUBSCRIBE KEPS to majordomo(a)amsat.org only
BID: ORB07046.D
TO ALL RADIO AMATEURS BT
Satellite: AO-16
Catalog number: 20439
Epoch time: 07045.72253577
Element set: 0967
Inclination: 098.1926 deg
RA of node: 047.0546 deg
Eccentricity: 0.0010647
Arg of perigee: 187.4095 deg
Mean anomaly: 172.6931 deg
Mean motion: 14.31750252 rev/day
Decay rate: 1.7e-07 rev/day^2
Epoch rev: 89102
Checksum: 312
Satellite: LO-19
Catalog number: 20442
Epoch time: 07045.57193595
Element set: 894
Inclination: 098.1824 deg
RA of node: 056.3944 deg
Eccentricity: 0.0011571
Arg of perigee: 187.4341 deg
Mean anomaly: 172.6677 deg
Mean motion: 14.31991016 rev/day
Decay rate: -7.4e-07 rev/day^2
Epoch rev: 89114
Checksum: 326
Satellite: AO-27
Catalog number: 22825
Epoch time: 07045.89202191
Element set: 617
Inclination: 098.3158 deg
RA of node: 021.2011 deg
Eccentricity: 0.0007561
